HULIANWANG DIGUI-56 (65113 NORAD) Tracking and Keplerian Element Data

This shows tracking and keplerian element data for the satellite.

Feedback or suggestion? Click here.




ElementValue
Catalog65113
NameHULIANWANG DIGUI-56
Epoch Orbit1888
Epoch Day354.18438022
Epoch Year2025
RAAN247.4874
Inclination49.998
Eccentricity0.0011428
Argument of Perigee306.5526
Mean Anonmoly53.4293
Mean Motion13.29329887
Decay Rate-5.7E-07
L11 65113U 25168H 25354.18438022 -.00000057 00000+0 14452-3 0 9996
L22 65113 49.9980 247.4874 0011428 306.5526 53.4293 13.29329887 18889



Live tracking and technical data element details for HULIANWANG DIGUI-56 (NORAD 65113). HULIANWANG DIGUI-56 can be tracked NOW for your location showing map with azimuth and elevation plus other details from your city location.







IsCatalogInMostPopularTable: catalog: 65113, numindb: 4
Update: records affected: 1



GetName: 65113 HULIANWANG DIGUI-56

Hit Count: updated at: Sat, 11 Apr 2026 21:30:05 GMT